Showing default

QIANFAN-35, 61568

Orbit data source: Space-Track

QIANFAN-35, 61568 is a Chinese payload satellite in LEO that was launched on Tue, 15 Oct 2024 UTC via a CHANG ZHENG 6A launch vehicle from the Taiyaun Space Center, China (TSC). Payload-class satellites include a variety of spacecraft equipped with specific instruments for various scientific and technological missions. These include communications satellites like Starlink; space stations such as the ISS; scientific satellites like the Hubble; Earth observation satellites from companies like Planet Labs, Umbra, and HawkEye 360; GPS; miniature CubeSats for education and research; and military/defense satellites.

Loading next visibility...
Identifier
61568, 2024-185S
Orbit
LEO
Country
Flag of CNCN / PRC
Related business
Manufacturer
GESIH/SECM
Mission
Partially operational Commercial Communications
Bus & Motor
QIANFAN, Unknown motor
Mass
267 kg wet, ~267 kg dry
Launch date (UTC)
2024-10-15 (2 years ago)
Launch vehicle
CHANG ZHENG 6A
Launch site
Taiyaun Space Center, China (TSC)
Object type
Payload
Rocket body
Debris
Shape & HBR
Box + 1 Pan, 5.0 m
Radar Cross Section
13.200 m², Large (>1 m²)

Expand to show TLE details & history
Last TLE update: 6 hours ago

TLE from 6 hours ago
0 QIANFAN-35
1 61568U 24185S   26254.73524067  .00000446  00000-0  17290-3 0  9995
2 61568  88.9831  44.8398 0008527 104.5212 255.6929 14.28351302109140
Epoch: 2026-09-11T17:38Z
TLE epoch observation values (Epoch: 2026-09-11T17:38:44.793Z)
Latitude
-0.00006°
Longitude
149.39883°
Altitude
801.829 km
Speed
7.452 km/s
True Right ascension
02h 59m 21s
True Declination
0° 00' 00"
Sunlit
Object was in full shadow at epoch
Visualization orbit readout
Latitude
Unknown
Longitude
Unknown
Altitude
Unknown
Speed
Unknown
Apparent Right ascension
Unknown
Apparent Declination
Unknown
Sunlit
N/A
Visualization observer readout
Local Sidereal Time
15:45:23
Azimuth
Unknown
Elevation
Unknown
Doppler factor
Unknown
Orbital elements
Apogee altitude
800.302 km
Perigee altitude
788.071 km
Semi-major axis
7,172.323 km
Eccentricity
0.00085
Inclination
88.9831°
RAAN
44.8398°
Arg. of periapsis
104.5212°
True anomaly
255.59824°
Mean anomaly
255.6929°
Eccentric anomaly
255.64557°
Mean motion
3.57317 °/min
Orbital period
100.75 mins
BSTAR
0.0001729
Loading maneuver chart data...
Computing Atmospheric mass density...
Loading historical data...
Loading historical data...
Loading historical data...
Loading historical data...
Loading historical data...
Loading historical data...
Loading historical data...

Documentation

Showing up to 5 results
|